Weather in Miyazaki

Japan     38°38′11″N   140°42′04″E
temp.,
°C
wind,
m/s
gust,
m/s
humid.,
%
clouds,
%
prec.,
mm/h
press.,
hPa
HPBL,
m
14 may, fri
fri1400:00+13ene129997 0.1 1014142
03:00+13ene009987 0.1 101361
06:00+14nw1287100 0.0 1014201
09:00+21nnw135996 0.1 10131205
12:00+20wnw3755100 0.0 10131458
15:00+22wnw57455 0.0 10121870
18:00+16wnw346623 0.0 101491
21:00+11wnw347746 0.0 101766
15 may, sat
sat1500:00+10nw22635 0.0 101823
03:00+9nw225725 0.0 101813
06:00+13ene11575 0.0 101967
09:00+18ese35525 0.0 1019804
12:00+19se565446 0.0 10181279
15:00+17se466691 0.0 10181075
18:00+13ese2683100 0.0 1018707
21:00+12ene248999 0.0 1018276
16 may, sun
sun1600:00+11ne1294100 0.0 101759
03:00+11ne129868 0.0 1015107
06:00+12ene239597 0.0 1015302
09:00+14ene2390100 0.1 1014548
12:00+16e248599 0.1 1011688
15:00+21e4560100 0.1 1008945
18:00+16ene3584100 0.0 1009246
21:00+14ne1297100 1.3 1008140
17 may, mon
mon1700:00+13ene1299100 2.6 1007110
03:00+13ene12100100 7.4 1004150
06:00+14n1199100 4.4 100480
09:00+15wnw1197100 5.1 100368
12:00+18w1391100 0.1 1002277
15:00+17sw0097100 1.0 100228
18:00+16se12100100 3.5 1002126
21:00+15ese12100100 7.4 1003181
18 may, tue
tue1800:00+14ese12100100 3.0 1002157
03:00+15ssw01100100 6.1 100277
06:00+15s1299100 1.1 100478
09:00+16wnw2894100 1.7 1005872
12:00+14wnw2995100 0.1 1007587
15:00+15wnw31091100 0.1 1007560
18:00+13wnw31094100 0.0 1009625
21:00+12w269395 0.1 1010353